Weather in Rossoni

Belarus     55˚54′12″N   28˚48′50″E
temp.,
°C
wind,
m/s
gust,
m/s
humid.,
%
clouds,
%
prec.,
mm/h
давл.,
hPa
HPBL,
m
27 november, fri
fri2700:00+2˚sw4989100 0.0 1010421
03:00+2˚sw4891100 0.4 1009439
06:00+2˚sw4994100 1.6 1008412
09:00+3˚sw3697100 4.6 1006314
12:00+3˚nw3697100 2.8 1007414
15:00+3˚nw467894 2.9 1008800
18:00+1˚nw3592100 0.1 1009422
21:00n2496100 0.8 1011324
28 november, sat
sat2800:00−1˚nnw259689 0.1 1013219
03:00nw369793 1.4 1014355
06:00+1˚n2598100 2.4 1014295
09:00+2˚ne2698100 4.1 1016357
12:00+1˚ene2498100 2.5 1018241
15:00+1˚sse2396100 3.1 1019217
18:00−1˚e229677 0.1 102061
21:00−2˚ene229643 0.1 102264
29 november, sun
sun2900:00−2˚ene259520 0.0 1023156
03:00−2˚ene269539 0.0 1024158
06:00−2˚ene269678 0.0 1024204
09:00−1˚ne369579 0.1 1024265
12:00ene378989 0.0 1024437
15:00+1˚ne478792 0.0 1022662
18:00nne4895100 0.1 1020534
21:00n4997100 1.6 1019484
30 november, mon
mon3000:00+2˚e3798100 2.4 1018372
03:00+2˚se3698100 2.8 1018366
06:00sse489099 0.1 1018569
09:00−1˚s4788100 0.1 1020668
12:00−1˚s489096 0.1 1020615
15:00ssw489298 0.3 1021685
18:00−1˚ssw499597 0.3 1022569
21:00sw499596 0.7 1023615
1 december, tue
tue100:00−1˚sw4990100 0.1 1024641
03:00−2˚ssw4109198 0.1 1025520
06:00−3˚ssw5109381 0.0 1024403
09:00−4˚ssw4109288 0.0 1024412
12:00−2˚ssw5108696 0.0 1024479
15:00−1˚s598698 0.0 1023586
18:00−1˚s4888100 0.0 1023642
21:00−2˚s4889100 0.0 1023500